Regional Weather Roundup
Issued by NWS

Home | Current Version | Previous Version | Text Only | Print | Product List | Glossary On
Versions: 1 2 3 4 5 6 7 8 9 10 11 12 13 14 15 16 17 18 19 20 21 22 23 24 25 26 27 28 29 30 31 32 33 34 35 36 37 38 39 40 41 42 43 44 45 46 47 48 49 50
000
ASUS44 KMEG 120010
RWRTN
TENNESSEE HOURLY STATE WEATHER ROUNDUP
NATIONAL WEATHER SERVICE MEMPHIS TN
600 PM CST THU FEB 11 2016

TNZ002-004-019-021-049-052-054-088>092-120100-
WEST TENNESSEE

CITY           SKY/WX    TMP DP  RH WIND       PRES   REMARKS
MEMPHIS INTL   MOCLDY    46  24  42 NE12      30.21R
NWS MEMPHIS      N/A     44 N/A N/A MISG        N/A
JACKSON        CLEAR     41  23  48 NE10      30.23R
DYERSBURG      CLEAR     39  23  52 NE7       30.27R WCI  34
UNION CITY     CLEAR     36  25  64 NE8       30.26R WCI  29
PARIS          CLEAR     34  21  60 NE7       30.26R WCI  28
LEXINGTON      CLEAR     39  19  45 N7        30.23R WCI  34
$$

TNZ008-025-027-028-033-062-065-066-120100-
NORTH MIDDLE TENNESSEE

CITY           SKY/WX    TMP DP  RH WIND       PRES   REMARKS
NASHVILLE      PTCLDY    36  21  54 N9        30.27R WCI  29
CLARKSVILLE    CLEAR     33  23  66 N7        30.27S WCI  27
SMYRNA         CLEAR     37  23  57 N8        30.28R WCI  31
COOKEVILLE     CLEAR     34  21  60 CALM      30.22R
CROSSVILLE     CLEAR     34  20  56 N5        30.19R WCI  30
$$

TNZ061-075-076-078-094-096-097-120100-
SOUTH MIDDLE TENNESSEE

CITY           SKY/WX    TMP DP  RH WIND       PRES   REMARKS
FAYETTEVILLE   CLEAR     39  25  56 N7        30.20R WCI  34
TULLAHOMA      CLEAR     37  21  52 NE3       30.21S
WINCHESTER     CLEAR     37  25  60 N5        30.21R WCI  34
MCMINNVILLE    CLEAR     36  23  60 N5        30.22R WCI  32
COLUMBIA       CLEAR     39  27  60 NE5       30.22R
SHELBYVILLE    CLEAR     37  25  60 N6        30.24R WCI  33
$$

TNZ017-018-042-046-047-120100-
NORTHEAST TENNESSEE

CITY           SKY/WX    TMP DP  RH WIND       PRES   REMARKS
TRI CITIES     PTCLDY    30  16  56 W5        30.21R WCI  25
$$

TNZ012-013-036-069-073-074-120100-
CENTRAL EAST TENNESSEE

CITY           SKY/WX    TMP DP  RH WIND       PRES   REMARKS
KNOXVILLE      PTCLDY    37  20  50 N5        30.22R WCI  33
OAK RIDGE      CLEAR     38  20  48 CALM      30.24R
GATLINBURG     CLEAR     34  16  47 CALM      30.22R
MORRISTOWN     PTCLDY    34  18  51 N7        30.21R WCI  28
$$

TNZ083-085-099-120100-
SOUTHEAST TENNESSEE

CITY           SKY/WX    TMP DP  RH WIND       PRES   REMARKS
CHATTANOOGA    PTCLDY    43  22  43 NE6       30.21R
$$

SKY/WX REPORTED AS FAIR MEANS FEW OR NO CLOUDS BELOW
12 THOUSAND FEET.




USA.gov is the U.S. government's official web portal to all federal, state and local government web resources and services.